DELTA 1 DEB, 7838

Orbit data source: Space-Track

DELTA 1 DEB, 7838 is space debris in SSO originally from a launch on Sun, 23 Jul 1972 UTC launched from the Air Force Western Test Range (AFWTR). Debris objects in space refer to the collection of defunct objects orbiting the Earth. Examples of debris include non-operational satellites, rocket bodies, and fragments generated from explosions, collisions, or faulty payload assembly.

Loading next visibility...
Identifier
7838, 1972-058J
Orbit
SSO
Country
Flag of USUS
Related business
Manufacturer
Unknown
Mission
Spacecraft
Bus & Motor
Unknown
Mass
Unknown
Launch date (UTC)
1972-07-23 (54 years ago)
Launch vehicle
Unknown
Launch site
Air Force Western Test Range (AFWTR)
Object type
Payload
Rocket body
Debris
Shape & HBR
Unknown shape, 0.2 m
Radar Cross Section
Medium (>0.1 m² and <1 m²)

Expand to show TLE details & history
Last TLE update: 21 hours ago

TLE from 21 hours ago
0 DELTA 1 DEB
1 07838U 72058J   26149.75998613  .00001565  00000-0  69613-3 0  9993
2 07838  98.1272 248.8187 0301863 181.9989 177.9996 14.02610521567447
Epoch: 2026-05-29T18:14Z
TLE epoch observation values (Epoch: 2026-05-29T18:14:22.801Z)
Latitude
-0.00011°
Longitude
87.93796°
Altitude
1,106.839 km
Speed
7.188 km/s
True Right ascension
16h 35m 16s
True Declination
0° 00' 00"
Sunlit
Object was in full shadow at epoch
Visualization orbit readout
Latitude
Unknown
Longitude
Unknown
Altitude
Unknown
Speed
Unknown
Apparent Right ascension
Unknown
Apparent Declination
Unknown
Sunlit
N/A
Visualization observer readout
Local Sidereal Time
01:12:52
Azimuth
Unknown
Elevation
Unknown
Doppler factor
Unknown
Orbital elements
Apogee altitude
1,101.075 km
Perigee altitude
662.766 km
Semi-major axis
7,260.058 km
Eccentricity
0.03019
Inclination
98.1272°
RAAN
248.8187°
Arg. of periapsis
181.9989°
True anomaly
178.11595°
Mean anomaly
177.9996°
Eccentric anomaly
178.0582°
Mean motion
3.50859 °/min
Orbital period
102.61 mins
BSTAR
0.00069613
Loading maneuver chart data...
Computing Atmospheric mass density...
Loading historical data...
Loading historical data...
Loading historical data...
Loading historical data...
Loading historical data...
Loading historical data...
Loading historical data...

Documentation

Showing up to 5 results
|